FLOCK 4BE-35 (60558 NORAD) Tracking and Keplerian Element Data

This shows tracking and keplerian element data for the satellite.

Feedback or suggestion? Click here.




ElementValue
Catalog60558
NameFLOCK 4BE-35
Epoch Orbit840
Epoch Day285.16380032
Epoch Year2024
RAAN359.9258
Inclination97.4388
Eccentricity0.0002983
Argument of Perigee319.2863
Mean Anonmoly40.8149
Mean Motion15.20129983
Decay Rate0.00087408
L11 60558U 24149CU 24285.16380032 .00087408 00000+0 40012-2 0 9993
L22 60558 97.4388 359.9258 0002983 319.2863 40.8149 15.20129983 8408



Live tracking and technical data element details for FLOCK 4BE-35 (NORAD 60558). FLOCK 4BE-35 can be tracked NOW for your location showing map with azimuth and elevation plus other details from your city location.







IsCatalogInMostPopularTable: catalog: 60558, numindb: 6
Update: records affected: 1



GetName: 60558 FLOCK 4BE-35

Hit Count: updated at: Wed, 04 Dec 2024 18:29:21 GMT